This demonstration page uses our WeatherBlox Daily Observations layout. Learn more.

40.92945, -100.16068

Hourly Observations for December 7, 2019

Temp ( °F °C ) Dew Point ( °F °C ) Humidity (%) Winds ( mph kmh ) Pressure ( in mb ) Visibility ( mi km ) Precip ( " mm )
12:15 am 00:15 Clear 34 1.2 31 -0.8 87 87 SSW 6 9 30.3 1026 10 16.0934 0 0
12:35 am 00:35 Clear 34 0.9 30 -0.9 88 88 SSW 8 13 30.29 1026 10 16.0934 0 0
12:55 am 00:55 Clear 34 0.9 31 -0.7 89 89 SSW 6 9 30.28 1025 10 16.0934 0 0
1:15 am 01:15 Clear 33 0.7 31 -0.6 91 91 SW 7 11 30.28 1025 10 16.0934 0 0
1:35 am 01:35 Clear 33 0.4 31 -0.7 92 92 SW 6 9 30.27 1025 10 16.0934 0 0
1:55 am 01:55 Clear 33 0.6 31 -0.5 92 92 Calm 30.27 1025 10 16.0934 0 0
2:15 am 02:15 Clear 33 0.5 31 -0.7 92 92 Calm 30.27 1025 10 16.0934 0 0
2:35 am 02:35 Clear 33 0.8 31 -0.6 90 90 WNW 3 6 30.27 1025 10 16.0934 0 0
2:55 am 02:55 Clear 32 0 30 -1 93 93 WSW 5 7 30.28 1025 10 16.0934 0 0
3:15 am 03:15 Clear 31 -0.3 30 -1.2 94 94 WSW 3 6 30.27 1025 10 16.0934 0 0
3:35 am 03:35 Clear 31 -0.6 29 -1.5 94 94 Calm 30.26 1025 10 16.0934 0 0
3:55 am 03:55 Clear 31 -0.5 30 -1.3 94 94 Calm 30.25 1024 10 16.0934 0 0
4:15 am 04:15 Clear 30 -1 29 -1.9 94 94 Calm 30.26 1025 10 16.0934 0 0
4:35 am 04:35 Clear 29 -1.6 28 -2.1 96 96 Calm 30.25 1024 10 16.0934 0 0
4:55 am 04:55 Clear 29 -1.8 28 -2.5 95 95 Calm 30.26 1025 10 16.0934 0 0
5:15 am 05:15 Clear 27 -2.9 26 -3.1 99 99 Calm 30.26 1025 10 16.0934 0 0
5:35 am 05:35 Clear 27 -3 26 -3.3 98 98 E 3 6 30.26 1025 10 16.0934 0 0
5:55 am 05:55 Clear 27 -2.6 27 -2.8 99 99 ENE 3 6 30.24 1024 7 11.26538 0 0
6:15 am 06:15 Clear 26 -3.6 25 -3.9 98 98 Calm 30.25 1025 7 11.26538 0 0
6:35 am 06:35 Clear 26 -3.2 26 -3.4 99 99 S 3 6 30.24 1024 7 11.26538 0 0
6:55 am 06:55 Clear 27 -3 26 -3.2 99 99 S 6 9 30.24 1024 10 16.0934 0 0
7:15 am 07:15 Clear 27 -2.9 26 -3.4 96 96 S 6 9 30.24 1024 10 16.0934 0 0
7:35 am 07:35 Clear 28 -2.5 26 -3.1 96 96 SSE 6 9 30.22 1023 10 16.0934 0 0
7:55 am 07:55 Sunny 28 -2.2 27 -2.8 96 96 S 6 9 30.21 1023 10 16.0934 0 0
8:15 am 08:15 Sunny 28 -2 27 -2.6 96 96 S 8 13 30.2 1023 10 16.0934 0 0
8:35 am 08:35 Sunny 29 -1.7 28 -2.5 94 94 S 7 11 30.19 1022 10 16.0934 0 0
8:55 am 08:55 undefined 30 -1 28 -2 93 93 S 10 17 30.19 1022 10 16.0934 0 0
9:15 am 09:15 Sunny 31 -0.5 29 -1.6 92 92 S 6 9 30.16 1021 10 16.0934 0 0
9:35 am 09:35 Sunny 32 0 30 -1.3 91 91 S 8 13 30.16 1021 10 16.0934 0 0
9:55 am 09:55 Sunny 33 0.4 30 -1 90 90 S 8 13 30.15 1021 10 16.0934 0 0
10:15 am 10:15 Sunny 34 1.1 31 -0.6 89 89 S 8 13 30.15 1021 10 16.0934 0 0
10:35 am 10:35 Sunny 35 1.6 31 -0.4 87 87 S 8 13 30.13 1020 10 16.0934 0 0
10:55 am 10:55 Sunny 36 2.1 32 -0.1 86 86 S 7 11 30.13 1020 10 16.0934 0 0
11:15 am 11:15 Sunny 37 3 32 0 81 81 SSW 6 9 30.11 1020 10 16.0934 0 0
11:35 am 11:35 Sunny 39 3.8 32 0.2 78 78 SSW 7 11 30.08 1019 10 16.0934 0 0
11:55 am 11:55 Sunny 41 4.9 34 0.9 76 76 S 9 15 30.05 1018 10 16.0934 0 0
12:15 pm 12:15 Sunny 42 5.8 34 1.3 73 73 S 14 22 30.03 1017 10 16.0934 0 0
12:35 pm 12:35 Sunny 43 6.2 35 1.6 73 73 S 12 19 30.01 1016 10 16.0934 0 0
12:55 pm 12:55 Sunny 44 6.7 35 1.9 72 72 S 13 20 29.98 1015 10 16.0934 0 0
1:15 pm 13:15 Sunny 46 7.5 36 2.4 70 70 S 15 24 29.95 1014 10 16.0934 0 0
1:35 pm 13:35 Sunny 46 8 37 2.6 69 69 S 14 22 29.95 1014 10 16.0934 0 0
1:55 pm 13:55 Sunny 47 8.5 37 2.9 68 68 S 16 26 29.93 1013 10 16.0934 0 0
2:15 pm 14:15 Sunny 49 9.3 38 3.3 66 66 S 14 22 29.91 1013 10 16.0934 0 0
2:35 pm 14:35 Sunny 49 9.6 38 3.4 66 66 S 13 20 29.89 1012 10 16.0934 0 0
2:55 pm 14:55 Sunny 50 10.2 38 3.4 63 63 S 13 20 29.89 1012 10 16.0934 0 0
3:15 pm 15:15 Sunny 52 11 39 3.7 61 61 S 14 22 29.86 1011 10 16.0934 0 0
3:35 pm 15:35 Sunny 52 11.1 39 3.8 61 61 S 12 19 29.86 1011 10 16.0934 0 0
3:55 pm 15:55 Sunny 52 11.3 39 3.7 60 60 S 8 13 29.86 1011 10 16.0934 0 0
4:15 pm 16:15 Sunny 52 11 38 3.6 61 61 S 10 17 29.86 1011 10 16.0934 0 0
4:35 pm 16:35 Sunny 51 10.3 38 3.5 63 63 S 8 13 29.88 1012 10 16.0934 0 0
4:55 pm 16:55 Sunny 49 9.5 38 3.3 66 66 SSW 5 7 29.89 1012 10 16.0934 0 0
5:15 pm 17:15 Clear 47 8.5 37 2.6 67 67 SW 5 7 29.92 1013 10 16.0934 0 0
5:35 pm 17:35 Clear 43 6.3 36 2.2 75 75 S 6 9 29.93 1013 10 16.0934 0 0
5:55 pm 17:55 Clear 42 5.8 36 2 77 77 S 5 7 29.93 1014 10 16.0934 0 0
6:15 pm 18:15 Clear 42 5.6 36 2 78 78 S 6 9 29.92 1013 10 16.0934 0 0
6:35 pm 18:35 Clear 40 4.2 34 1.1 80 80 S 7 11 29.94 1014 10 16.0934 0 0
6:55 pm 18:55 Clear 42 5.6 35 1.6 76 76 S 8 13 29.92 1013 10 16.0934 0 0
7:15 pm 19:15 Clear 44 6.9 36 2.2 72 72 SSW 8 13 29.91 1013 10 16.0934 0 0
7:35 pm 19:35 Clear 47 8.3 36 2.4 67 67 SW 9 15 29.9 1012 10 16.0934 0 0
7:55 pm 19:55 Clear 47 8.6 37 2.5 66 66 SSW 16 26 29.88 1012 10 16.0934 0 0
8:15 pm 20:15 Clear 47 8.4 37 2.5 67 67 SW 16 26 29.89 1012 10 16.0934 0 0
8:35 pm 20:35 Clear 47 8.3 37 2.5 67 67 SW 14 22 29.89 1012 10 16.0934 0 0
8:55 pm 20:55 Clear 46 7.6 37 2.5 70 70 SW 14 22 29.88 1012 10 16.0934 0 0
9:15 pm 21:15 Clear 45 7.4 36 2.4 71 71 SW 12 19 29.89 1012 10 16.0934 0 0
9:35 pm 21:35 Clear 45 7 36 2.3 72 72 SW 12 19 29.88 1012 10 16.0934 0 0
9:55 pm 21:55 Clear 44 6.9 36 2.3 73 73 SW 10 17 29.88 1012 10 16.0934 0 0
10:15 pm 22:15 Clear 43 6.1 36 2.1 76 76 SW 7 11 29.89 1012 10 16.0934 0 0
10:35 pm 22:35 Clear 41 5.1 35 1.8 79 79 Calm 29.9 1012 10 16.0934 0 0
10:55 pm 22:55 Clear 39 3.9 34 1.2 83 83 W 3 6 29.91 1013 10 16.0934 0 0
11:15 pm 23:15 Clear 35 1.5 32 -0.1 89 89 Calm 29.93 1014 10 16.0934 0 0
11:35 pm 23:35 Clear 35 1.5 32 0 90 90 Calm 29.93 1014 10 16.0934 0 0
11:55 pm 23:55 Clear 33 0.8 32 0 94 94 Calm 29.93 1013 10 16.0934 0 0

Powered by AerisWeather